Location: Unspecified
(32.7750°N, 0.0000°E)
Time: 03:40:21
(UTC+00:00)

CZ-6A DEB - Visible Passes

Search period start: 04 April 2026 00:00
Search period end: 14 April 2026 00:00
Orbit: 547 x 788 km, 89.0° (Epoch: 28 March)

Date Brightness Start Highest point End Pass type
(mag) Time Alt. Az. Time Alt. Az. Time Alt. Az.
4 Apr ? 05:14:47 10° SSE 05:18:29 33° E 05:22:05 10° NNE visible
4 Apr ? 18:51:41 10° NW 18:53:43 13° W 18:55:48 10° WSW visible
6 Apr ? 04:42:39 10° ESE 04:45:13 17° E 04:47:45 10° NE visible
7 Apr ? 05:13:27 10° SSE 05:17:20 48° E 05:21:09 10° N visible
9 Apr ? 04:40:50 10° SE 04:44:00 23° E 04:47:09 10° NNE visible
11 Apr ? 04:09:31 10° E 04:10:44 11° ENE 04:11:58 10° ENE visible
12 Apr ? 04:39:12 10° SSE 04:42:45 32° E 04:46:19 10° NNE visible
